map of DKR home
DKR - Airport
Location
City:  Dakar, Dakar, Senegal
Near (Alt.):Yoff
Name:Léopold Sédar Senghor International Airport
Old (Alt.):Dakar Yoff International Airport
ICAO:GOOY
IATA:DKR

Details
Type:Airport (Aerodrome, Airfield)
Use:Public/Civil, International (customs port of entry)
Latitude:14°44'38"N (14.743889)
Longitude:17°28'46"W (-17.479443)
Elevation:85 ft (26 m)
Variation:7.34°W (WMM2015 magnetic declination)
0.11° annual change
Runways:2
Longest:11450 × 148 ft (3490 × 45 m), paved

Time
Time Zone:UTC+0
Local Time:

Weather
METAR:GOOY 140700Z 02012KT 8000 NSC 21/14 Q1015
TAF:GOOY 140530Z 1406/1512 03016KT 8000 NSC= TAF GBYD 140530Z 1406/1512 04012KT 8000 NSC

Related Locations
Nearby:
Farthest:OLJ: 12179 mi / 19600 km
Olpoi [North West Santo], Espíritu Santo Island, SAM, VU

Find:

   beyond  
but within

Other Information
Maps:
NOTAMs:
Links:
Sources:

  
flag of Senegal   

Airport Diagram

Airport diagram for DKR

Larger airport diagram (OBSOLETE) from NGA

Sectional Chart

Flight Planning
at skyvector.com

Satellite Image

Google Maps Satellite view

 

Copyright © 2004-2017 Karl L. Swartz. All rights reserved.
The Great Circle Mapper name and logo are trademarks of the Great Circle Mapper.
All other trademarks mentioned herein belong to their respective owners.
Please see credits for attibutions and further copyright information.

  Follow gcmap on Facebook Follow gcmap on Twitter Follow gcmap on Google+ GCmap on LinkedIn

hCard Microformat

Geo Microformat